Weather Roundup
Issued by NWS

Home | Current Version | Previous Version | Graphics & Text | Print | Product List | Glossary Off
Versions: 1 2 3 4 5 6 7 8 9 10 11 12 13 14 15 16 17 18 19 20 21 22 23 24 25 26 27 28 29 30 31 32 33 34 35 36 37 38 39 40 41 42 43 44 45 46 47 48 49 50

000
NZUS93 KARX 281459
HRRWXR

CURRENT HOURLY OBSERVATIONS ACROSS
MUCH OF THE UPPER MISSISSIPPI VALLEY
NATIONAL WEATHER SERVICE LA CROSSE WI
1000 AM CDT THU AUG 28 2014


...SOUTHEAST MINNESOTA...


CITY           SKY/WX    TMP DP  RH WIND       PRES   REMARKS
ROCHESTER      CLOUDY    64  61  90 SE8       30.11S
ROCHESTER/MAYO FAIR      64  60  87 SE7       30.10S
WINONA         PTSUNNY   66  61  82 SE6       30.11S
AUSTIN         LGT RAIN  64  63  94 SE7       30.08F
ALBERT LEA     LGT RAIN  63  63 100 SE9       30.06F
DODGE CENTER   DRIZZLE   64  63  94 SE9       30.09S
PRESTON        CLOUDY    65  64  96 CALM      30.11S
OWATONNA       LGT RAIN  66  59  77 SE8       30.07S
FARIBAULT      CLOUDY    70  57  64 SE7       30.07F
$$

...ELSEWHERE IN MINNESOTA...


CITY           SKY/WX    TMP DP  RH WIND       PRES   REMARKS
MINNEAPOLIS    PTSUNNY   69  58  67 SE12      30.08S
INTNL FALLS    MOSUNNY   65  57  75 S6        30.05F
DULUTH         SUNNY     65  53  65 S7        30.12S
RED WING       PTSUNNY   68  57  68 SE10      30.08F
REDWOOD FALLS  CLOUDY    66  60  81 SE12      30.01F
MANKATO        CLOUDY    64  57  77 SE13      30.05F
WORTHINGTON    CLOUDY    64  64 100 E8        30.00F
FAIRMONT       CLOUDY    63  59  88 SE9       30.02F
$$

...SOUTHWEST WISCONSIN...


CITY           SKY/WX    TMP DP  RH WIND       PRES   REMARKS
LA CROSSE      PTSUNNY   71  60  68 S8        30.11S
PRAIRIE DU CHI CLOUDY    67  59  75 E6        30.10F
BOSCOBEL       MOSUNNY   73  60  63 VRB3      30.12S
LONE ROCK      NOT AVBL
PLATTEVILLE    MOSUNNY   69  62  79 E10       30.12F
FORT MC COY    PTSUNNY   69  59  69 S3        30.13S
VIROQUA        FAIR      67  62  82 SE9       30.13F
WIS DELLS      MOSUNNY   69  58  68 S10       30.14S
$$

...ELSEWHERE IN WISCONSIN...


CITY           SKY/WX    TMP DP  RH WIND       PRES   REMARKS
MILWAUKEE      MOSUNNY   69  56  62 SE14      30.15S
MADISON        MOSUNNY   70  57  63 SE13      30.14S
GREEN BAY      CLOUDY    66  58  75 SE5       30.17R
EAU CLAIRE     NOT AVBL
BLACK RVR FLS  FAIR      63  59  87 CALM      30.13S
MEDFORD        SUNNY     63  53  70 E5        30.15S
WAUSAU         CLOUDY    58  57  97 SE9       30.15F
WIS RAPIDS     CLOUDY    61  60  97 VRB3      30.16R
MARSHFIELD     CLOUDY    59  57  93 SE7       30.15R FOG
RICE LAKE      PTSUNNY   62  51  67 SE8       30.14S
$$

...NORTHEAST IOWA...


CITY           SKY/WX    TMP DP  RH WIND       PRES   REMARKS
WATERLOO       LGT RAIN  65  62  90 SE8       30.07S
DUBUQUE        PTSUNNY   68  61  78 SE10      30.12S
DECORAH        CLOUDY    64  63  94 SE6G14    30.10S
MASON CITY     LGT RAIN  64  63  96 SE8       30.08S FOG
CHARLES CITY   LGT RAIN  64  63  94 SE7       30.09F
OELWEIN        CLOUDY    66  63  88 SE9       30.10S FOG
$$

...ELSEWHERE IN IOWA...


CITY           SKY/WX    TMP DP  RH WIND       PRES   REMARKS
DES MOINES     RAIN      67  65  93 SE8       30.02F FOG
IOWA CITY      CLOUDY    69  61  75 E6        30.08S
FORT DODGE     CLOUDY    64  63  94 SE13G18   30.00F
MARSHALLTOWN   LGT RAIN  66  65  96 E10       30.05S
CEDAR RAPIDS   CLOUDY    68  61  78 SE8       30.07S
$$

...NORTHERN ILLINOIS...


CITY           SKY/WX    TMP DP  RH WIND       PRES   REMARKS
CHICAGO-OHARE  MOSUNNY   72  53  51 E12       30.13S
DUPAGE         SUNNY     73  56  54 E9        30.12S
CHICAGO-MIDWAY MOSUNNY   72  57  59 E12       30.13S
MOLINE         PTSUNNY   71  61  70 E13       30.08S
ROCKFORD       MOSUNNY   72  59  63 SE13      30.15R
STERLING       PTSUNNY   72  63  73 E13       30.11F
PEORIA         PTSUNNY   73  63  70 E8        30.09S
$$

NOTE: "FAIR" INDICATES FEW OR NO CLOUDS BELOW 12,000 FEET WITH NO
SIGNIFICANT WEATHER AND/OR OBSTRUCTIONS TO VISIBILITY. WIND
SPEEDS ARE IN MILES-PER-HOUR.



USA.gov is the U.S. government's official web portal to all federal, state and local government web resources and services.